Latest Weather Observations for Broken Hill Airport

IDN60801

Issued at 8:35 pm EST Tuesday 30 September 2014 (issued every 30 minutes, with the page automatically refreshed every 10 minutes)

About weather observations | Map of weather stations | Latest weather observations for NSW | Other Formats
Station Details ID: 047048 Name: BROKEN HILL AIRPORT AWS Lat: -32.00 Lon: 141.47 Height: 281.3 m
Data from the previous 72 hours. | See also: Recent months for locations in New South Wales
Date/Time
EST
Temp
°C
App
Temp
°C
Dew
Point
Rel
Hum
%
Delta-T
°C
Wind Press
QNH
hPa
Press
MSL
hPa
Rain
since 9 am
mm
Dir
 
Spd
km/h
Gust
km/h
Spd
kts
Gust
kts
30/08:30pm 22.3 15.0 2.4 27 9.5 SW 30 39 16 21 1017.6 1017.3 0.0
30/08:00pm 23.0 16.5 2.5 26 9.9 SW 26 33 14 18 1017.0 1016.6 0.0
30/07:30pm 24.0 16.8 1.0 22 10.9 WSW 28 37 15 20 1016.4 1016.0 0.0
30/07:00pm 24.7 17.9 0.9 21 11.3 WSW 26 35 14 19 1015.8 1015.4 0.0
30/06:30pm 25.9 17.3 0.5 19 12.0 WSW 35 46 19 25 1015.2 1014.9 0.0
30/06:00pm 27.1 17.7 0.0 17 12.8 W 39 52 21 28 1014.7 1014.4 0.0
30/05:30pm 28.2 19.2 0.0 16 13.5 W 37 50 20 27 1014.2 1013.9 0.0
30/05:01pm 28.9 20.2 -0.3 15 13.9 W 35 56 19 30 1013.9 1013.5 0.0
30/05:00pm 29.0 20.3 -0.2 15 14.0 W 35 52 19 28 1014.0 1013.6 0.0
30/04:35pm 29.2 19.5 0.8 16 13.9 W 41 59 22 32 1013.8 1013.4 0.0
30/04:30pm 28.6 18.5 0.3 16 13.6 W 43 59 23 32 1013.9 1013.5 0.0
30/04:29pm 29.2 19.4 -0.1 15 14.1 W 41 59 22 32 1013.9 1013.5 0.0
30/04:00pm 29.3 19.3 0.9 16 13.9 W 43 56 23 30 1013.9 1013.5 0.0
30/03:30pm 29.7 20.0 0.3 15 14.3 W 41 65 22 35 1013.9 1013.5 0.0
30/03:22pm 30.0 21.1 0.6 15 14.4 W 37 56 20 30 1014.0 1013.6 0.0
30/03:00pm 29.5 19.9 1.1 16 14.0 W 41 57 22 31 1014.1 1013.7 0.0
30/02:30pm 29.5 19.5 1.1 16 14.0 W 43 61 23 33 1014.4 1014.1 0.0
30/02:01pm 30.0 20.8 1.5 16 14.1 WNW 39 57 21 31 1014.3 1014.0 0.0
30/02:00pm 29.5 19.9 1.1 16 14.0 WNW 41 57 22 31 1014.4 1014.1 0.0
30/01:36pm 29.4 20.0 0.1 15 14.1 WNW 39 59 21 32 1014.4 1014.1 0.0
30/01:30pm 29.8 21.0 1.3 16 14.1 WNW 37 54 20 29 1014.7 1014.4 0.0
30/01:00pm 29.3 20.2 1.7 17 13.7 WNW 39 61 21 33 1015.0 1014.7 0.0
30/12:55pm 29.6 21.1 1.1 16 14.0 WNW 35 54 19 29 1015.1 1014.8 0.0
30/12:30pm 28.8 19.6 1.3 17 13.5 WNW 39 56 21 30 1015.7 1015.3 0.0
30/12:05pm 28.9 21.7 0.6 16 13.7 W 28 46 15 25 1015.9 1015.5 0.0
30/12:00pm 29.1 20.7 1.6 17 13.6 WNW 35 46 19 25 1016.0 1015.6 0.0
30/11:30am 28.4 20.2 0.2 16 13.5 WNW 33 54 18 29 1016.2 1015.8 0.0
30/11:20am 28.3 21.1 0.9 17 13.3 W 28 48 15 26 1016.5 1016.1 0.0
30/11:00am 27.4 21.0 1.0 18 12.7 WNW 24 41 13 22 1016.7 1016.3 0.0
30/10:47am 27.0 19.0 0.7 18 12.6 WNW 32 41 17 22 1016.8 1016.4 0.0
30/10:30am 25.8 21.7 2.5 22 11.4 NNW 13 22 7 12 1017.1 1016.7 0.0
30/10:00am 24.0 20.4 4.9 29 9.7 N 13 20 7 11 1017.2 1016.8 0.0
30/09:30am 23.1 20.2 6.4 34 8.6 N 11 17 6 9 1017.3 1017.0 0.0
30/09:00am 21.9 18.9 6.2 36 8.0 NNE 11 15 6 8 1017.3 1017.0 0.0
30/08:30am 20.1 17.6 6.4 41 7.0 NE 9 11 5 6 1017.0 1016.6 0.0
30/08:00am 18.0 16.6 5.6 44 6.1 ESE 2 6 1 3 1017.1 1016.7 0.0
30/07:30am 16.0 14.9 5.0 48 5.3 CALM 0 0 0 0 1017.0 1016.6 0.0
30/07:00am 14.2 13.1 5.3 55 4.2 CALM 0 0 0 0 1016.7 1016.3 0.0
30/06:30am 13.1 10.8 4.8 57 3.9 S 6 7 3 4 1016.3 1015.9 0.0
30/06:00am 14.0 11.6 5.1 55 4.2 S 7 9 4 5 1016.0 1015.6 0.0
30/05:30am 14.9 12.4 4.6 50 4.9 SSW 7 7 4 4 1015.7 1015.3 0.0
30/05:00am 15.1 12.6 5.0 51 4.8 SSW 7 9 4 5 1015.3 1015.0 0.0
30/04:30am 15.1 12.6 4.5 49 5.0 SW 7 9 4 5 1014.9 1014.6 0.0
30/04:00am 15.9 14.5 3.7 44 5.7 CALM 0 0 0 0 1014.8 1014.5 0.0
30/03:30am 15.8 13.3 3.9 45 5.6 WSW 6 7 3 4 1014.7 1014.4 0.0
30/03:00am 16.3 14.9 3.4 42 6.0 CALM 0 0 0 0 1014.7 1014.4 0.0
30/02:30am 16.2 14.8 3.3 42 6.0 CALM 0 0 0 0 1014.8 1014.5 0.0
30/02:00am 17.0 14.2 3.3 40 6.4 WSW 7 9 4 5 1014.8 1014.5 0.0
30/01:30am 18.5 13.7 2.4 34 7.5 WSW 17 22 9 12 1015.0 1014.7 0.0
30/01:00am 18.6 14.5 4.4 39 6.9 W 15 17 8 9 1015.0 1014.7 0.0
30/12:30am 19.0 15.3 4.4 38 7.1 WNW 13 15 7 8 1015.1 1014.8 0.0
30/12:00am 19.5 15.7 4.0 36 7.5 NW 13 15 7 8 1015.1 1014.8 0.0
 
Date/Time
EST
Temp
°C
App
Temp
°C
Dew
Point
Rel
Hum
%
Delta-T
°C
Wind Press
QNH
hPa
Press
MSL
hPa
Rain
since 9 am
mm
Dir
 
Spd
km/h
Gust
km/h
Spd
kts
Gust
kts
29/11:30pm 19.9 16.1 4.0 35 7.7 NW 13 13 7 7 1015.2 1014.9 0.0
29/11:00pm 20.2 16.9 4.3 35 7.8 NW 11 13 6 7 1015.2 1014.9 0.0
29/10:30pm 20.4 17.0 4.0 34 8.0 NW 11 13 6 7 1015.3 1015.0 0.0
29/10:00pm 20.9 17.5 4.0 33 8.2 NW 11 13 6 7 1015.3 1015.0 0.0
29/09:30pm 21.2 18.2 3.9 32 8.4 NNW 9 11 5 6 1015.2 1014.9 0.0
29/09:00pm 21.2 18.2 3.9 32 8.4 NW 9 11 5 6 1015.1 1014.8 0.0
29/08:30pm 22.1 19.3 3.3 29 9.1 NW 7 9 4 5 1014.8 1014.5 0.0
29/08:00pm 22.3 19.1 2.9 28 9.4 NW 9 9 5 5 1014.6 1014.3 0.0
29/07:30pm 22.9 20.1 2.9 27 9.7 NW 7 9 4 5 1014.4 1014.1 0.0
29/07:00pm 23.3 20.0 2.2 25 10.1 NW 9 9 5 5 1014.1 1013.7 0.0
29/06:30pm 24.5 20.7 2.0 23 10.9 NW 11 15 6 8 1013.8 1013.4 0.0
29/06:00pm 25.4 21.2 1.5 21 11.5 NW 13 19 7 10 1013.7 1013.3 0.0
29/05:30pm 26.8 22.3 2.0 20 12.2 WNW 15 22 8 12 1013.6 1013.2 0.0
29/05:00pm 26.7 22.3 2.6 21 11.9 NW 15 24 8 13 1013.3 1012.9 0.0
29/04:30pm 26.7 22.7 2.6 21 11.9 NW 13 20 7 11 1013.3 1012.9 0.0
29/04:00pm 26.4 22.7 2.3 21 11.8 N 11 19 6 10 1013.4 1013.0 0.0
29/03:30pm 25.8 21.6 1.8 21 11.6 N 13 19 7 10 1013.5 1013.1 0.0
29/03:00pm 25.3 22.3 2.1 22 11.3 NNE 7 13 4 7 1013.9 1013.5 0.0
29/02:30pm 25.0 21.2 1.8 22 11.2 N 11 20 6 11 1014.4 1014.1 0.0
29/02:00pm 25.0 20.8 1.8 22 11.2 NNE 13 20 7 11 1014.7 1014.4 0.0
29/01:30pm 24.7 21.5 2.8 24 10.7 NE 9 19 5 10 1015.2 1014.9 0.0
29/01:00pm 23.9 20.2 4.3 28 9.8 ENE 13 20 7 11 1015.6 1015.2 0.0
29/12:30pm 22.9 19.2 4.4 30 9.2 ENE 13 22 7 12 1016.0 1015.6 0.0
29/12:00pm 22.4 18.2 4.0 30 9.1 E 15 24 8 13 1016.5 1016.1 0.0
29/11:30am 21.3 16.7 3.5 31 8.6 E 17 22 9 12 1016.8 1016.4 0.0
29/11:00am 20.6 16.2 4.6 35 7.9 E 17 26 9 14 1017.0 1016.6 0.0
29/10:30am 20.2 15.2 4.7 36 7.6 E 20 30 11 16 1017.2 1016.8 0.0
29/10:00am 19.1 13.2 4.1 37 7.2 E 24 30 13 16 1017.3 1017.0 0.0
29/09:30am 18.5 13.1 4.7 40 6.7 E 22 28 12 15 1017.5 1017.2 0.0
29/09:00am 17.6 13.0 5.5 45 5.9 ESE 19 24 10 13 1017.7 1017.4 0.0
29/08:30am 16.5 11.8 6.1 50 5.1 ESE 20 24 11 13 1017.5 1017.2 0.0
29/08:00am 15.8 11.3 6.0 52 4.8 ESE 19 24 10 13 1017.4 1017.1 0.0
29/07:30am 14.8 11.0 7.4 61 3.7 ESE 17 20 9 11 1017.4 1017.1 0.0
29/07:00am 13.3 10.3 7.7 69 2.8 SE 13 17 7 9 1017.1 1016.7 0.0
29/06:30am 12.5 9.0 7.2 70 2.6 SE 15 20 8 11 1016.6 1016.2 0.0
29/06:00am 13.0 9.1 7.2 68 2.9 SSE 17 20 9 11 1016.3 1015.9 0.0
29/05:30am 13.3 9.4 6.9 65 3.1 S 17 20 9 11 1016.1 1015.7 0.0
29/05:00am 13.6 9.6 6.7 63 3.4 S 17 20 9 11 1015.9 1015.5 0.0
29/04:30am 13.9 9.9 6.5 61 3.6 S 17 20 9 11 1015.5 1015.1 0.0
29/04:00am 14.3 10.2 6.2 58 3.9 S 17 19 9 10 1015.5 1015.1 0.0
29/03:30am 15.4 10.7 5.9 53 4.6 S 20 26 11 14 1015.3 1015.0 0.0
29/03:00am 15.9 11.0 6.9 55 4.5 S 22 28 12 15 1015.2 1014.9 0.0
29/02:30am 16.5 12.3 7.4 55 4.6 SSW 19 24 10 13 1015.1 1014.8 0.0
29/02:00am 17.5 12.8 7.8 53 5.0 SSW 22 28 12 15 1015.2 1014.9 0.0
29/01:30am 18.8 13.0 7.9 49 5.7 SSW 28 35 15 19 1015.2 1014.9 0.0
29/01:03am 21.5 14.0 -1.1 22 10.0 WSW 28 39 15 21 1014.5 1014.2 0.0
29/01:00am 22.5 17.5 -0.9 21 10.5 NW 15 19 8 10 1014.1 1013.7 0.0
29/12:30am 24.0 18.5 -1.8 18 11.5 NNW 17 26 9 14 1013.6 1013.2 0.0
29/12:00am 24.7 18.6 -2.0 17 12.0 NNW 20 28 11 15 1013.3 1012.9 0.0
 
Date/Time
EST
Temp
°C
App
Temp
°C
Dew
Point
Rel
Hum
%
Delta-T
°C
Wind Press
QNH
hPa
Press
MSL
hPa
Rain
since 9 am
mm
Dir
 
Spd
km/h
Gust
km/h
Spd
kts
Gust
kts
28/11:30pm 24.9 18.4 -2.6 16 12.2 NNW 22 32 12 17 1013.3 1012.9 0.0
28/11:00pm 25.2 18.7 -2.4 16 12.3 NNW 22 30 12 16 1013.3 1012.9 0.0
28/10:30pm 25.5 18.7 -2.1 16 12.4 NNW 24 33 13 18 1013.4 1013.0 0.0
28/10:00pm 25.8 18.9 -2.8 15 12.8 NNW 24 33 13 18 1013.6 1013.2 0.0
28/09:30pm 25.7 18.5 -2.0 16 12.5 NNW 26 41 14 22 1013.3 1012.9 0.0
28/09:00pm 25.8 18.6 -1.9 16 12.6 NNW 26 37 14 20 1013.0 1012.6 0.0
28/08:30pm 25.8 18.3 -1.1 17 12.4 NNW 28 35 15 19 1012.6 1012.2 0.0
28/08:00pm 26.0 18.2 -0.9 17 12.4 NNW 30 43 16 23 1012.4 1012.0 0.0
28/07:30pm 26.3 18.8 -1.5 16 12.7 NNW 28 41 15 22 1012.1 1011.7 0.0
28/07:00pm 26.6 19.5 -1.3 16 12.9 NNW 26 41 14 22 1011.9 1011.5 0.0
28/06:30pm 27.3 19.8 -1.6 15 13.3 NNW 28 41 15 22 1012.0 1011.6 0.0
28/06:04pm 28.0 20.4 -2.0 14 13.8 NNW 28 46 15 25 1012.1 1011.7 0.0
28/06:00pm 28.1 20.2 -1.9 14 13.9 NNW 30 46 16 25 1012.0 1011.6 0.0
28/05:36pm 28.6 19.8 -1.5 14 14.0 N 35 54 19 29 1011.5 1011.2 0.0
28/05:30pm 28.7 19.1 -1.4 14 14.1 N 39 54 21 29 1011.5 1011.2 0.0
28/05:00pm 29.2 21.0 -1.0 14 14.3 NNW 32 50 17 27 1011.9 1011.5 0.0
28/04:54pm 29.1 20.9 -1.1 14 14.2 NNW 32 50 17 27 1011.9 1011.5 0.0
28/04:30pm 29.3 21.2 0.9 16 13.9 NNW 33 50 18 27 1011.6 1011.3 0.0
28/04:00pm 29.7 21.6 -0.6 14 14.5 NNW 32 44 17 24 1012.1 1011.7 0.0
28/03:30pm 29.3 20.2 -0.9 14 14.3 N 37 59 20 32 1012.5 1012.1 0.0
28/03:04pm 29.2 20.2 -0.1 15 14.1 NNW 37 56 20 30 1013.0 1012.6 0.0
28/03:00pm 29.1 19.7 -0.1 15 14.0 NNW 39 54 21 29 1013.0 1012.6 0.0
28/02:30pm 28.7 19.0 0.4 16 13.7 NNW 41 61 22 33 1013.2 1012.8 0.0
28/02:00pm 28.7 19.5 1.3 17 13.4 NNW 39 57 21 31 1013.0 1012.6 0.0
28/01:40pm 28.7 19.8 2.8 19 13.0 N 39 57 21 31 1013.4 1013.0 0.0
28/01:30pm 28.3 19.2 1.7 18 13.1 N 39 54 21 29 1013.6 1013.2 0.0
28/01:08pm 28.3 19.9 1.7 18 13.1 N 35 54 19 29 1013.5 1013.1 0.0
28/01:00pm 28.3 19.2 1.7 18 13.1 N 39 56 21 30 1013.6 1013.2 0.0
28/12:30pm 27.5 19.3 2.6 20 12.4 N 35 54 19 29 1014.4 1014.1 0.0
28/12:03pm 27.2 18.7 3.0 21 12.1 N 37 57 20 31 1014.7 1014.4 0.0
28/12:00pm 26.7 18.1 2.6 21 11.9 N 37 52 20 28 1014.9 1014.6 0.0
28/11:30am 26.3 17.4 2.9 22 11.6 N 39 56 21 30 1015.0 1014.7 0.0
28/11:15am 26.5 18.9 3.7 23 11.5 N 33 52 18 28 1015.6 1015.2 0.0
28/11:00am 25.8 17.8 3.7 24 11.1 N 35 50 19 27 1015.8 1015.4 0.0
28/10:30am 25.5 17.2 4.0 25 10.8 N 37 57 20 31 1016.5 1016.1 0.0
28/10:24am 25.0 17.2 3.0 24 10.8 N 33 52 18 28 1016.6 1016.2 0.0
28/10:00am 24.7 17.2 3.4 25 10.5 N 32 44 17 24 1017.0 1016.6 0.0
28/09:30am 24.0 16.6 3.9 27 10.0 N 32 48 17 26 1017.6 1017.3 0.0
28/09:00am 23.0 15.5 3.5 28 9.6 N 32 43 17 23 1017.9 1017.6 0.0
28/08:30am 21.5 15.9 5.4 35 8.1 N 24 32 13 17 1018.1 1017.8 0.0
28/08:00am 19.7 14.5 5.7 40 7.0 N 22 32 12 17 1018.1 1017.8 0.0
28/07:30am 17.9 13.2 6.1 46 5.9 NNE 20 30 11 16 1018.8 1018.5 0.0
28/07:00am 16.7 12.2 6.2 50 5.2 NNE 19 24 10 13 1018.9 1018.6 0.0
28/06:30am 16.3 12.1 5.9 50 5.1 NNE 17 24 9 13 1018.7 1018.4 0.0
28/06:00am 17.7 13.1 5.6 45 5.9 N 19 26 10 14 1018.4 1018.1 0.0
28/05:30am 17.8 13.5 5.4 44 6.1 N 17 24 9 13 1018.4 1018.1 0.0
28/05:00am 18.0 13.8 5.6 44 6.1 N 17 26 9 14 1018.2 1017.9 0.0
28/04:30am 16.7 13.7 7.9 56 4.5 N 13 19 7 10 1017.9 1017.6 0.0
28/04:00am 12.6 10.2 6.9 68 2.8 NNE 9 11 5 6 1017.9 1017.6 0.0
28/03:30am 13.4 10.3 7.4 67 3.0 NE 13 15 7 8 1018.0 1017.7 0.0
28/03:00am 13.6 10.1 7.2 65 3.2 NNE 15 15 8 8 1018.2 1017.9 0.0
28/02:30am 14.2 10.8 7.5 64 3.3 NNE 15 17 8 9 1018.4 1018.1 0.0
28/02:00am 14.4 10.6 7.5 63 3.4 NNE 17 19 9 10 1018.7 1018.4 0.0
28/01:30am 14.5 11.1 7.5 63 3.5 NNE 15 17 8 9 1019.1 1018.8 0.0
28/01:00am 15.8 12.9 8.3 61 3.8 NNE 13 15 7 8 1019.1 1018.8 0.0
28/12:30am 13.8 10.8 7.6 66 3.1 NNE 13 15 7 8 1019.4 1019.0 0.0
28/12:00am 15.3 12.3 7.8 61 3.8 NNE 13 13 7 7 1019.6 1019.2 0.0
 
Date/Time
EST
Temp
°C
App
Temp
°C
Dew
Point
Rel
Hum
%
Delta-T
°C
Wind Press
QNH
hPa
Press
MSL
hPa
Rain
since 9 am
mm
Dir
 
Spd
km/h
Gust
km/h
Spd
kts
Gust
kts
27/11:30pm 14.6 11.3 7.9 64 3.4 NNE 15 17 8 9 1019.8 1019.4 0.0
27/11:00pm 15.4 12.0 7.7 60 3.9 NNE 15 15 8 8 1020.1 1019.7 0.0
27/10:30pm 16.1 12.7 7.8 58 4.2 NNE 15 17 8 9 1020.3 1019.9 0.0
27/10:00pm 16.4 13.3 7.3 55 4.6 NNE 13 15 7 8 1020.4 1020.1 0.0
27/09:30pm 16.7 13.6 7.4 54 4.7 NNE 13 13 7 7 1020.5 1020.2 0.0

Other Formats:

Comma delimited format used in spreadsheet applications
http://www.bom.gov.au/fwo/IDN60801/IDN60801.94691.axf

JavaScript Object Notation format (JSON) in row-major order
http://www.bom.gov.au/fwo/IDN60801/IDN60801.94691.json